CW6225 Weather Reports


time (UTC)temp
C
wind
direction
speed
KPH
gust
KPH
rain 1hr
cm
rain 24hr
cm
rain mn
cm
humidity
%
barometer
mb
20260504214602 15 187 1.6 6.4 0.00 0.00 0.00 75 1010.7
20260504213054 16 200 1.6 8.0 0.00 0.00 0.00 75 1010.7
20260504211551 16 171 1.6 8.0 0.00 0.00 0.00 74 1010.7
20260504204632 16 174 1.6 4.8 0.00 0.00 0.00 73 1010.8
20260504203122 16 0 0.0 3.2 0.00 0.00 0.00 72 1010.7
20260504201558 16 0 0.0 4.8 0.00 0.00 0.00 72 1010.8
20260504200055 16 170 1.6 4.8 0.00 0.00 0.00 73 1010.9
20260504194556 15 171 1.6 8.0 0.00 0.00 0.00 76 1010.7
20260504193056 17 164 1.6 6.4 0.00 0.00 0.00 70 1010.7
20260504191601 17 180 0.0 3.2 0.00 0.00 0.00 70 1010.7
20260504190053 17 0 0.0 3.2 0.00 0.00 0.00 71 1010.7
20260504184559 16 272 0.0 4.8 0.00 0.00 0.00 72 1010.8
20260504183104 16 0 0.0 3.2 0.00 0.00 0.00 73 1010.8
20260504181554 15 0 0.0 4.8 0.00 0.00 0.00 74 1010.8
20260504180105 15 0 0.0 4.8 0.00 0.00 0.00 75 1011.0
20260504174549 15 178 1.6 4.8 0.00 0.00 0.00 74 1011.0
20260504173105 15 194 1.6 3.2 0.00 0.00 0.00 73 1010.9
20260504171559 15 194 0.0 6.4 0.00 0.00 0.00 72 1011.0
20260504081556 14 0 0.0 3.2 0.00 0.00 0.00 68 1009.5
20260504044554 15 0 0.0 0.0 0.00 0.00 0.00 68 1009.8
20260504043058 15 0 0.0 0.0 0.00 0.00 0.00 68 1009.7
20260504041549 15 0 0.0 0.0 0.00 0.00 0.00 68 1009.7
20260504040054 16 0 0.0 0.0 0.00 0.00 0.00 65 1009.7
20260504034606 16 0 0.0 0.0 0.00 0.00 0.00 63 1009.6
20260504033051 18 0 0.0 1.6 0.00 0.00 0.00 59 1009.6
20260504031552 20 0 0.0 3.2 0.00 0.00 0.00 54 1009.6
20260504030058 21 0 0.0 0.0 0.00 0.00 0.00 48 1009.6
20260504024555 22 0 0.0 1.6 0.00 0.00 0.00 48 1009.8
20260504023057 21 0 0.0 4.8 0.00 0.00 0.00 47 1009.8
20260504021556 21 0 0.0 4.8 0.00 0.00 0.00 50 1009.9
20260504020105 21 0 0.0 3.2 0.00 0.00 0.00 51 1010.1
20260504014558 21 0 0.0 3.2 0.00 0.00 0.00 51 1010.1
20260504013108 21 0 0.0 3.2 0.00 0.00 0.00 51 1010.2
20260504011549 21 0 0.0 3.2 0.00 0.00 0.00 53 1010.4
20260504010047 21 0 0.0 3.2 0.00 0.00 0.00 53 1010.4
20260504004551 20 0 0.0 3.2 0.00 0.00 0.00 56 1010.6
20260504003047 20 0 0.0 0.0 0.00 0.00 0.00 61 1010.7
20260504001550 18 188 0.0 4.8 0.00 0.00 0.00 64 1010.8
20260504000049 19 171 1.6 3.2 0.00 0.00 0.00 62 1011.0
20260503234549 18 0 0.0 4.8 0.00 0.00 0.00 65 1011.3
20260503233047 17 0 0.0 6.4 0.00 0.00 0.00 69 1011.3
20260503231552 16 165 3.2 9.7 0.00 0.00 0.00 72 1011.4
20260503230052 17 161 3.2 8.0 0.00 0.00 0.00 72 1011.7
20260503224600 17 127 6.4 14.5 0.00 0.00 0.00 67 1011.8
20260503223054 20 134 6.4 11.3 0.00 0.00 0.00 61 1012.1
20260503221601 21 168 1.6 6.4 0.00 0.00 0.00 54 1012.1
20260503220055 21 180 1.6 4.8 0.00 0.00 0.00 56 1012.3